Weather History for Pocatello, ID

Change the Weather History Date:

Wednesday, February 1, 2012

  Actual Average Record
Temperature  
Mean Temperature 32 °F 25 °F  
Max Temperature 43 °F 34 °F 59 °F (2003)
Min Temperature 21 °F 17 °F -33 °F (1985)
Degree Days  
Heating Degree Days 33 40  
Month to date heating degree days 33 40  
Since 1 July heating degree days 4044 4287  
Cooling Degree Days 0 0  
Month to date cooling degree days 0 0  
Year to date cooling degree days 0 0  
Moisture  
Dew Point 25 °F    
Average Humidity 74    
Maximum Humidity 92    
Minimum Humidity 55    
Precipitation  
Precipitation 0.00 in 0.03 in 0.42 in (1963)
Month to date precipitation 0.00 0.03  
Year to date precipitation 1.64 1.02  
Snow  
Snow 0.00 in - - ()
Month to date snowfall 0.0  
Since 1 July snowfall 7.8  
Snow Depth 0.00 in    
Sea Level Pressure  
Sea Level Pressure 30.16 in    
Wind  
Wind Speed 6 mph (West)    
Max Wind Speed 14 mph    
Max Gust Speed 18 mph    
Visibility 10 miles    
Events      
T = Trace of Precipitation, MM = Missing Value Source: NWS Daily Summary

Daily Weather History Graph

Daily Weather History Graph

Search for Another Location

Airport:

Trip Planner

Search our weather history database for the weather conditions in past years. The results will help you decide how hot, cold, wet, or windy it might be!

Date:

Astronomy

Feb. 01, 2012 Rise Set
Actual Time 7:45 AM MST 5:42 PM MST
Civil Twilight 7:15 AM MST 6:12 PM MST
Nautical Twilight 6:41 AM MST 6:46 PM MST
Astronomical Twilight 6:08 AM MST 7:19 PM MST
Moon 12:10 PM MST (2/1) 2:37 AM MST (2/1)
Length of Visible Light 10h 57m
Length of Day
9h 57m
Waxing Gibbous, 65% of the Moon is Illuminated
Feb 1
Waxing Gibbous
Feb 7
Full
Feb 14
Last Quarter
Feb 21
New
Feb 29
First Quarter

Hourly Weather History & Observations

Time (MST) Temp. Windchill Dew Point Humidity Pressure Visibility Wind Dir Wind Speed Gust Speed Precip Events Conditions
12:53 AM 26.1 °F 21.9 °F 23.0 °F 88% 30.25 in 10.0 mi NNW 3.5 mph - N/A   Clear
1:53 AM 24.1 °F 18.2 °F 21.9 °F 91% 30.23 in 9.0 mi North 4.6 mph - N/A   Clear
2:53 AM 26.1 °F 19.4 °F 23.0 °F 88% 30.21 in 10.0 mi North 5.8 mph - N/A   Clear
3:53 AM 24.1 °F 19.7 °F 21.9 °F 91% 30.21 in 10.0 mi NNE 3.5 mph - N/A   Clear
4:53 AM 27.0 °F 17.3 °F 23.0 °F 85% 30.16 in 10.0 mi ENE 10.4 mph - N/A   Clear
5:53 AM 25.0 °F 18.1 °F 23.0 °F 92% 30.19 in 10.0 mi NNW 5.8 mph - N/A   Clear
6:53 AM 23.0 °F - 19.9 °F 88% 30.20 in 10.0 mi Calm Calm - N/A   Clear
7:53 AM 21.9 °F - 19.0 °F 89% 30.19 in 10.0 mi Calm Calm - N/A   Clear
8:53 AM 26.6 °F - 21.2 °F 80% 30.09 in 10.0 mi Calm Calm - N/A   Partly Cloudy
9:53 AM 28.4 °F 23.3 °F 24.8 °F 86% 30.09 in 10.0 mi NNW 4.6 mph - N/A   Mostly Cloudy
10:53 AM 30.0 °F 26.5 °F 25.0 °F 82% 30.17 in 10.0 mi East 3.5 mph - N/A   Mostly Cloudy
11:53 AM 34.0 °F 28.0 °F 26.1 °F 73% 30.14 in 10.0 mi NE 6.9 mph - N/A   Mostly Cloudy
12:53 PM 39.0 °F - 26.1 °F 60% 30.10 in 10.0 mi Calm Calm - N/A   Scattered Clouds
1:53 PM 39.9 °F 32.9 °F 27.0 °F 60% 30.11 in 10.0 mi NW 11.5 mph - N/A   Scattered Clouds
2:53 PM 41.0 °F 35.8 °F 27.0 °F 57% 30.10 in 10.0 mi SW 8.1 mph - N/A   Scattered Clouds
3:53 PM 39.2 °F 37.0 °F 26.6 °F 61% 30.05 in 10.0 mi South 3.5 mph - N/A   Mostly Cloudy
4:53 PM 39.0 °F 33.4 °F 28.9 °F 67% 30.11 in 10.0 mi SSW 8.1 mph - N/A   Mostly Cloudy
5:53 PM 37.9 °F 31.5 °F 28.9 °F 70% 30.13 in 10.0 mi SW 9.2 mph - N/A   Mostly Cloudy
6:53 PM 36.0 °F 31.1 °F 28.9 °F 76% 30.16 in 10.0 mi SSW 5.8 mph - N/A   Mostly Cloudy
7:53 PM 34.0 °F 26.0 °F 28.0 °F 79% 30.18 in 10.0 mi SW 10.4 mph - N/A   Clear
8:53 PM 35.1 °F 27.4 °F 28.9 °F 78% 30.16 in 10.0 mi SW 10.4 mph - N/A   Mostly Cloudy
9:53 PM 34.0 °F 26.0 °F 28.9 °F 82% 30.17 in 10.0 mi SSW 10.4 mph - N/A   Mostly Cloudy
10:53 PM 36.0 °F 27.5 °F 28.9 °F 76% 30.16 in 10.0 mi SW 12.7 mph - N/A   Overcast
11:53 PM 34.0 °F 25.5 °F 30.0 °F 85% 30.17 in 10.0 mi WSW 11.5 mph - N/A   Overcast